Simultaneous Nadir Overpasses (SNOs) Predictions

Prediction of SNOs between NPP and TERRA Satellite Orbit:

Table of predicted SNOs for the next 14.0 days since TLE Epoch: 6/13/2020
Index Date (NPP) Time (NPP) Lat,Lon (NPP) SZA (NPP ) Date (TERRA) Time (TERRA) Lat,Lon (TERRA) SZA (TERRA ) Distance(km) Time Diff (sec)
1 06/14/2020 10:38:59 68.88, 18.16 45.49 06/14/2020 10:40:09 68.81, 19.27 45.40 45.25 70
2 06/14/2020 11:29:32 -68.31,-173.77 135.09 06/14/2020 11:29:46 -68.31,-173.71 135.10 2.67 14
3 06/14/2020 12:20:15 68.13, -6.23 44.73 06/14/2020 12:19:14 68.14, -6.26 44.74 1.86 61
4 06/17/2020 02:55:43 68.37, 134.61 44.88 06/17/2020 02:56:45 68.38, 134.62 44.88 1.04 62
5 06/17/2020 03:46:24 -68.24, -57.90 135.26 06/17/2020 03:46:16 -68.22, -57.94 135.28 2.31 8
6 06/17/2020 04:37:00 67.68, 110.10 44.18 06/17/2020 04:35:49 67.77, 109.18 44.28 40.06 71
7 06/19/2020 19:12:37 68.36,-109.60 44.82 06/19/2020 19:13:15 68.34,-109.55 44.80 2.82 38
8 06/19/2020 20:03:18 -68.22, 57.90 135.32 06/19/2020 20:02:46 -68.18, 57.90 135.36 3.62 32
9 06/22/2020 10:38:59 -69.10,-162.13 134.41 06/22/2020 10:40:08 -68.97,-160.52 134.57 65.22 69
10 06/22/2020 11:29:30 68.29, 6.27 44.76 06/22/2020 11:29:45 68.30, 6.28 44.77 1.27 15
11 06/22/2020 12:20:11 -68.15, 173.77 135.39 06/22/2020 12:19:16 -68.15, 173.74 135.39 1.40 55
12 06/25/2020 02:55:40 -68.39, -45.40 135.08 06/25/2020 02:56:48 -68.38, -45.38 135.10 1.38 68
13 06/25/2020 03:46:24 68.28, 122.06 44.80 06/25/2020 03:46:15 68.26, 122.11 44.78 2.98 9
14 06/25/2020 04:37:01 -67.92, -70.16 135.57 06/25/2020 04:35:48 -68.00, -70.56 135.48 18.84 73




NCC Satellite Simultaneous Nadir Overpasses (SNOs) Prediction Service
